Location: Briis
(48.6240°N, 2.1211°E)
Time: 19:04:57
(UTC+00:00)

Cosmos 2369 - Pass Details

Date: 25 September 2020
Orbit: 839 x 856 km, 71.0° (Epoch: 22 October)

Event Time Altitude Azimuth Distance (km) Brightness Sun altitude
Exits shadow 02:20:34 51° 1° (N) 1,067 4.3 -31.6°
Drops below altitude 10° 02:24:58 10° 24° (NNE) 2,498 6.9 -31.1°
Sets 02:27:28 0° 27° (NNE) 3,437 7.8 -30.7°
